Location: ????????
(55.4717°N, 39.1821°E)
Time: 17:32:55
(UTC+00:00)

MSX - Pass Details

Date: 14 April 2024
Orbit: 894 x 905 km, 99.0° (Epoch: 24 May)

Event Time Altitude Azimuth Distance (km) Brightness Sun altitude
Rises 00:19:35 0° 15° (NNE) 3,547 8.0 -15.4°
Reaches altitude 10° 00:22:03 10° 11° (N) 2,601 7.1 -15.2°
Maximum altitude 00:27:39 53° 296° (WNW) 1,103 4.2 -14.6°
Enters shadow 00:31:28 20° 228° (SW) 1,943 4.9 -14.2°
